ASIASAT 7

Last updated on Thu Sep 10 2026 00:02:57 GMT+0000 (Coordinated Universal Time)

1 37933U 11069A 26252.60646172 -.00000355 00000+0 00000+0 0 9993 2 37933 0.0202 242.2472 0001433 261.3702 168.8789 1.00271546 45705
UTC large
Height (km)
Speed (km/s)
/
Latitude / Longitude
Inclination (degrees)
Orbital Period (minutes)
Azimuth
Elevation
Range (km)
Doppler Factor

Next 0 passes for location: London (51.5072 / 0.1276)

No passes found over London.
ASIASAT 7